Year,Month,Day,Hour,Minute,Value (Times are PST for temperature in C)
2007,06,16,00,00,11.80
2007,06,16,00,01,11.80
2007,06,16,00,02,11.80
2007,06,16,00,03,11.80
2007,06,16,00,04,11.80
2007,06,16,00,05,11.80
2007,06,16,00,06,11.70
2007,06,16,00,07,11.70
2007,06,16,00,08,11.70
2007,06,16,00,09,11.70
2007,06,16,00,10,11.70
2007,06,16,00,11,11.70
2007,06,16,00,12,11.60
2007,06,16,00,13,11.60
2007,06,16,00,14,11.60
2007,06,16,00,15,11.60
2007,06,16,00,16,11.60
2007,06,16,00,17,11.60
2007,06,16,00,18,11.50
2007,06,16,00,19,11.50
2007,06,16,00,20,11.50
2007,06,16,00,21,11.50
2007,06,16,00,22,11.40
2007,06,16,00,23,11.40
2007,06,16,00,24,11.40
2007,06,16,00,25,11.40
2007,06,16,00,26,11.40
2007,06,16,00,27,11.40
2007,06,16,00,28,11.30
2007,06,16,00,29,11.30
2007,06,16,00,30,11.30
2007,06,16,00,31,11.30
2007,06,16,00,32,11.30
2007,06,16,00,33,11.30
2007,06,16,00,34,11.30
2007,06,16,00,35,11.30
2007,06,16,00,36,11.30
2007,06,16,00,37,11.30
2007,06,16,00,38,11.30
2007,06,16,00,39,11.30
2007,06,16,00,40,11.30
2007,06,16,00,41,11.30
2007,06,16,00,42,11.30
2007,06,16,00,43,11.20
2007,06,16,00,44,11.30
2007,06,16,00,45,11.30
2007,06,16,00,46,11.30
2007,06,16,00,47,11.30
2007,06,16,00,48,11.20
2007,06,16,00,49,11.20
2007,06,16,00,50,11.30
2007,06,16,00,51,11.20
2007,06,16,00,52,11.30
2007,06,16,00,53,11.30
2007,06,16,00,54,11.30
2007,06,16,00,55,11.30
2007,06,16,00,56,11.30
2007,06,16,00,57,11.20
2007,06,16,00,58,11.20
2007,06,16,00,59,11.20
2007,06,16,01,00,11.20
2007,06,16,01,01,11.20
2007,06,16,01,02,11.20
2007,06,16,01,03,11.20
2007,06,16,01,04,11.20
2007,06,16,01,05,11.20
2007,06,16,01,06,11.20
2007,06,16,01,07,11.20
2007,06,16,01,08,11.10
2007,06,16,01,09,11.10
2007,06,16,01,10,11.10
2007,06,16,01,11,11.10
2007,06,16,01,12,11.10
2007,06,16,01,13,11.10
2007,06,16,01,14,11.00
2007,06,16,01,15,11.00
2007,06,16,01,16,11.00
2007,06,16,01,17,11.00
2007,06,16,01,18,10.90
2007,06,16,01,19,10.90
2007,06,16,01,20,10.90
2007,06,16,01,21,10.90
2007,06,16,01,22,10.90
2007,06,16,01,23,10.90
2007,06,16,01,24,10.80
2007,06,16,01,25,10.80
2007,06,16,01,26,10.80
2007,06,16,01,27,10.80
2007,06,16,01,28,10.80
2007,06,16,01,29,10.80
2007,06,16,01,30,10.70
2007,06,16,01,31,10.70
2007,06,16,01,32,10.70
2007,06,16,01,33,10.70
2007,06,16,01,34,10.60
2007,06,16,01,35,10.60
2007,06,16,01,36,10.60
2007,06,16,01,37,10.50
2007,06,16,01,38,10.50
2007,06,16,01,39,10.50
2007,06,16,01,40,10.50
2007,06,16,01,41,10.40
2007,06,16,01,42,10.40
2007,06,16,01,43,10.40
2007,06,16,01,44,10.40
2007,06,16,01,45,10.40
2007,06,16,01,46,10.30
2007,06,16,01,47,10.30
2007,06,16,01,48,10.30
2007,06,16,01,49,10.20
2007,06,16,01,50,10.20
2007,06,16,01,51,10.10
2007,06,16,01,52,10.10
2007,06,16,01,53,10.10
2007,06,16,01,54,10.10
2007,06,16,01,55,10.00
2007,06,16,01,56,10.00
2007,06,16,01,57,9.90
2007,06,16,01,58,9.90
2007,06,16,01,59,9.90
2007,06,16,02,00,9.80
2007,06,16,02,01,9.80
2007,06,16,02,02,9.80
2007,06,16,02,03,9.80
2007,06,16,02,04,9.70
2007,06,16,02,05,9.70
2007,06,16,02,06,9.70
2007,06,16,02,07,9.70
2007,06,16,02,08,9.70
2007,06,16,02,09,9.70
2007,06,16,02,10,9.70
2007,06,16,02,11,9.70
2007,06,16,02,12,9.70
2007,06,16,02,13,9.80
2007,06,16,02,14,9.80
2007,06,16,02,15,9.80
2007,06,16,02,16,9.80
2007,06,16,02,17,9.80
2007,06,16,02,18,9.80
2007,06,16,02,19,9.80
2007,06,16,02,20,9.80
2007,06,16,02,21,9.90
2007,06,16,02,22,9.90
2007,06,16,02,23,9.90
2007,06,16,02,24,9.90
2007,06,16,02,25,10.00
2007,06,16,02,26,10.00
2007,06,16,02,27,10.00
2007,06,16,02,28,10.00
2007,06,16,02,29,10.00
2007,06,16,02,30,10.10
2007,06,16,02,31,10.10
2007,06,16,02,32,10.10
2007,06,16,02,33,10.10
2007,06,16,02,34,10.10
2007,06,16,02,35,10.10
2007,06,16,02,36,10.10
2007,06,16,02,37,10.10
2007,06,16,02,38,10.10
2007,06,16,02,39,10.10
2007,06,16,02,40,10.10
2007,06,16,02,41,10.10
2007,06,16,02,42,10.10
2007,06,16,02,43,10.10
2007,06,16,02,44,10.10
2007,06,16,02,45,10.10
2007,06,16,02,46,10.10
2007,06,16,02,47,10.10
2007,06,16,02,48,10.10
2007,06,16,02,49,10.10
2007,06,16,02,50,10.10
2007,06,16,02,51,10.10
2007,06,16,02,52,10.10
2007,06,16,02,53,10.10
2007,06,16,02,54,10.10
2007,06,16,02,55,10.10
2007,06,16,02,56,10.10
2007,06,16,02,57,10.10
2007,06,16,02,58,10.10
2007,06,16,02,59,10.10
2007,06,16,03,00,10.10
2007,06,16,03,01,10.10
2007,06,16,03,02,10.10
2007,06,16,03,03,10.10
2007,06,16,03,04,10.10
2007,06,16,03,05,10.10
2007,06,16,03,06,10.10
2007,06,16,03,07,10.10
2007,06,16,03,08,10.10
2007,06,16,03,09,10.10
2007,06,16,03,10,10.10
2007,06,16,03,11,10.10
2007,06,16,03,12,10.10
2007,06,16,03,13,10.00
2007,06,16,03,14,10.00
2007,06,16,03,15,10.00
2007,06,16,03,16,10.00
2007,06,16,03,17,10.00
2007,06,16,03,18,10.00
2007,06,16,03,19,9.90
2007,06,16,03,20,9.90
2007,06,16,03,21,9.90
2007,06,16,03,22,9.90
2007,06,16,03,23,9.90
2007,06,16,03,24,9.90
2007,06,16,03,25,9.90
2007,06,16,03,26,9.80
2007,06,16,03,27,9.80
2007,06,16,03,28,9.80
2007,06,16,03,29,9.70
2007,06,16,03,30,9.70
2007,06,16,03,31,9.60
2007,06,16,03,32,9.60
2007,06,16,03,33,9.60
2007,06,16,03,34,9.60
2007,06,16,03,35,9.50
2007,06,16,03,36,9.50
2007,06,16,03,37,9.50
2007,06,16,03,38,9.40
2007,06,16,03,39,9.40
2007,06,16,03,40,9.40
2007,06,16,03,41,9.40
2007,06,16,03,42,9.40
2007,06,16,03,43,9.30
2007,06,16,03,44,9.40
2007,06,16,03,45,9.40
2007,06,16,03,46,9.40
2007,06,16,03,47,9.50
2007,06,16,03,48,9.50
2007,06,16,03,49,9.60
2007,06,16,03,50,9.60
2007,06,16,03,51,9.60
2007,06,16,03,52,9.60
2007,06,16,03,53,9.60
2007,06,16,03,54,9.60
2007,06,16,03,55,9.60
2007,06,16,03,56,9.60
2007,06,16,03,57,9.60
2007,06,16,03,58,9.60
2007,06,16,03,59,9.60
2007,06,16,04,00,9.60
2007,06,16,04,01,9.60
2007,06,16,04,02,9.60
2007,06,16,04,03,9.60
2007,06,16,04,04,9.60
2007,06,16,04,05,9.60
2007,06,16,04,06,9.60
2007,06,16,04,07,9.60
2007,06,16,04,08,9.60
2007,06,16,04,09,9.70
2007,06,16,04,10,9.70
2007,06,16,04,11,9.70
2007,06,16,04,12,9.70
2007,06,16,04,13,9.70
2007,06,16,04,14,9.70
2007,06,16,04,15,9.70
2007,06,16,04,16,9.70
2007,06,16,04,17,9.70
2007,06,16,04,18,9.80
2007,06,16,04,19,9.80
2007,06,16,04,20,9.80
2007,06,16,04,21,9.80
2007,06,16,04,22,9.80
2007,06,16,04,23,9.80
2007,06,16,04,24,9.80
2007,06,16,04,25,9.90
2007,06,16,04,26,9.90
2007,06,16,04,27,9.90
2007,06,16,04,28,9.90
2007,06,16,04,29,9.90
2007,06,16,04,30,9.90
2007,06,16,04,31,9.90
2007,06,16,04,32,9.90
2007,06,16,04,33,9.90
2007,06,16,04,34,9.90
2007,06,16,04,35,9.90
2007,06,16,04,36,9.90
2007,06,16,04,37,9.90
2007,06,16,04,38,9.90
2007,06,16,04,39,9.90
2007,06,16,04,40,9.90
2007,06,16,04,41,9.90
2007,06,16,04,42,10.00
2007,06,16,04,43,10.00
2007,06,16,04,44,10.00
2007,06,16,04,45,10.10
2007,06,16,04,46,10.10
2007,06,16,04,47,10.10
2007,06,16,04,48,10.10
2007,06,16,04,49,10.10
2007,06,16,04,50,10.10
2007,06,16,04,51,10.10
2007,06,16,04,52,10.20
2007,06,16,04,53,10.20
2007,06,16,04,54,10.20
2007,06,16,04,55,10.20
2007,06,16,04,56,10.20
2007,06,16,04,57,10.20
2007,06,16,04,58,10.20
2007,06,16,04,59,10.20
2007,06,16,05,00,10.20
2007,06,16,05,01,10.30
2007,06,16,05,02,10.30
2007,06,16,05,03,10.30
2007,06,16,05,04,10.30
2007,06,16,05,05,10.30
2007,06,16,05,06,10.30
2007,06,16,05,07,10.30
2007,06,16,05,08,10.30
2007,06,16,05,09,10.30
2007,06,16,05,10,10.30
2007,06,16,05,11,10.30
2007,06,16,05,12,10.30
2007,06,16,05,13,10.30
2007,06,16,05,14,10.30
2007,06,16,05,15,10.30
2007,06,16,05,16,10.30
2007,06,16,05,17,10.30
2007,06,16,05,18,10.30
2007,06,16,05,19,10.30
2007,06,16,05,20,10.30
2007,06,16,05,21,10.30
2007,06,16,05,22,10.30
2007,06,16,05,23,10.30
2007,06,16,05,24,10.30
2007,06,16,05,25,10.30
2007,06,16,05,26,10.30
2007,06,16,05,27,10.30
2007,06,16,05,28,10.30
2007,06,16,05,29,10.30
2007,06,16,05,30,10.30
2007,06,16,05,31,10.30
2007,06,16,05,32,10.30
2007,06,16,05,33,10.30
2007,06,16,05,34,10.30
2007,06,16,05,35,10.30
2007,06,16,05,36,10.30
2007,06,16,05,37,10.30
2007,06,16,05,38,10.30
2007,06,16,05,39,10.30
2007,06,16,05,40,10.30
2007,06,16,05,41,10.30
2007,06,16,05,42,10.30
2007,06,16,05,43,10.30
2007,06,16,05,44,10.30
2007,06,16,05,45,10.30
2007,06,16,05,46,10.30
2007,06,16,05,47,10.30
2007,06,16,05,48,10.30
2007,06,16,05,49,10.30
2007,06,16,05,50,10.30
2007,06,16,05,51,10.30
2007,06,16,05,52,10.30
2007,06,16,05,53,10.30
2007,06,16,05,54,10.30
2007,06,16,05,55,10.30
2007,06,16,05,56,10.30
2007,06,16,05,57,10.30
2007,06,16,05,58,10.20
2007,06,16,05,59,10.30
2007,06,16,06,00,10.30
2007,06,16,06,01,10.30
2007,06,16,06,02,10.30
2007,06,16,06,03,10.30
2007,06,16,06,04,10.30
2007,06,16,06,05,10.30
2007,06,16,06,06,10.30
2007,06,16,06,07,10.30
2007,06,16,06,08,10.30
2007,06,16,06,09,10.30
2007,06,16,06,10,10.30
2007,06,16,06,11,10.40
2007,06,16,06,12,10.40
2007,06,16,06,13,10.40
2007,06,16,06,14,10.40
2007,06,16,06,15,10.40
2007,06,16,06,16,10.40
2007,06,16,06,17,10.40
2007,06,16,06,18,10.50
2007,06,16,06,19,10.50
2007,06,16,06,20,10.50
2007,06,16,06,21,10.50
2007,06,16,06,22,10.60
2007,06,16,06,23,10.60
2007,06,16,06,24,10.60
2007,06,16,06,25,10.60
2007,06,16,06,26,10.60
2007,06,16,06,27,10.70
2007,06,16,06,28,10.70
2007,06,16,06,29,10.70
2007,06,16,06,30,10.70
2007,06,16,06,31,10.70
2007,06,16,06,32,10.70
2007,06,16,06,33,10.70
2007,06,16,06,34,10.70
2007,06,16,06,35,10.70
2007,06,16,06,36,10.70
2007,06,16,06,37,10.80
2007,06,16,06,38,10.80
2007,06,16,06,39,10.80
2007,06,16,06,40,10.80
2007,06,16,06,41,10.80
2007,06,16,06,42,10.90
2007,06,16,06,43,10.90
2007,06,16,06,44,10.90
2007,06,16,06,45,10.90
2007,06,16,06,46,10.90
2007,06,16,06,47,11.00
2007,06,16,06,48,11.00
2007,06,16,06,49,11.00
2007,06,16,06,50,11.10
2007,06,16,06,51,11.10
2007,06,16,06,52,11.10
2007,06,16,06,53,11.10
2007,06,16,06,54,11.10
2007,06,16,06,55,11.20
2007,06,16,06,56,11.20
2007,06,16,06,57,11.20
2007,06,16,06,58,11.20
2007,06,16,06,59,11.20
2007,06,16,07,00,11.30
2007,06,16,07,01,11.30
2007,06,16,07,02,11.30
2007,06,16,07,03,11.40
2007,06,16,07,04,11.50
2007,06,16,07,05,11.50
2007,06,16,07,06,11.60
2007,06,16,07,07,11.70
2007,06,16,07,08,11.70
2007,06,16,07,09,11.80
2007,06,16,07,10,11.90
2007,06,16,07,11,12.00
2007,06,16,07,12,12.00
2007,06,16,07,13,12.10
2007,06,16,07,14,12.20
2007,06,16,07,15,12.30
2007,06,16,07,16,12.30
2007,06,16,07,17,12.30
2007,06,16,07,18,12.40
2007,06,16,07,19,12.40
2007,06,16,07,20,12.40
2007,06,16,07,21,12.40
2007,06,16,07,22,12.40
2007,06,16,07,23,12.40
2007,06,16,07,24,12.40
2007,06,16,07,25,12.40
2007,06,16,07,26,12.40
2007,06,16,07,27,12.40
2007,06,16,07,28,12.40
2007,06,16,07,29,12.40
2007,06,16,07,30,12.30
2007,06,16,07,31,12.30
2007,06,16,07,32,12.30
2007,06,16,07,33,12.30
2007,06,16,07,34,12.20
2007,06,16,07,35,12.20
2007,06,16,07,36,12.20
2007,06,16,07,37,12.20
2007,06,16,07,38,12.20
2007,06,16,07,39,12.20
2007,06,16,07,40,12.20
2007,06,16,07,41,12.20
2007,06,16,07,42,12.20
2007,06,16,07,43,12.20
2007,06,16,07,44,12.20
2007,06,16,07,45,12.20
2007,06,16,07,46,12.20
2007,06,16,07,47,12.20
2007,06,16,07,48,12.20
2007,06,16,07,49,12.20
2007,06,16,07,50,12.20
2007,06,16,07,51,12.30
2007,06,16,07,52,12.30
2007,06,16,07,53,12.30
2007,06,16,07,54,12.30
2007,06,16,07,55,12.40
2007,06,16,07,56,12.40
2007,06,16,07,57,12.40
2007,06,16,07,58,12.50
2007,06,16,07,59,12.50
2007,06,16,08,00,12.60
2007,06,16,08,01,12.60
2007,06,16,08,02,12.70
2007,06,16,08,03,12.70
2007,06,16,08,04,12.70
2007,06,16,08,05,12.80
2007,06,16,08,06,12.80
2007,06,16,08,07,12.80
2007,06,16,08,08,12.80
2007,06,16,08,09,12.80
2007,06,16,08,10,12.80
2007,06,16,08,11,12.80
2007,06,16,08,12,12.80
2007,06,16,08,13,12.90
2007,06,16,08,14,12.90
2007,06,16,08,15,12.90
2007,06,16,08,16,12.90
2007,06,16,08,17,13.00
2007,06,16,08,18,13.00
2007,06,16,08,19,13.00
2007,06,16,08,20,13.10
2007,06,16,08,21,13.10
2007,06,16,08,22,13.10
2007,06,16,08,23,13.10
2007,06,16,08,24,13.10
2007,06,16,08,25,13.20
2007,06,16,08,26,13.20
2007,06,16,08,27,13.20
2007,06,16,08,28,13.20
2007,06,16,08,29,13.20
2007,06,16,08,30,13.30
2007,06,16,08,31,13.30
2007,06,16,08,32,13.30
2007,06,16,08,33,13.30
2007,06,16,08,34,13.30
2007,06,16,08,35,13.40
2007,06,16,08,36,13.40
2007,06,16,08,37,13.40
2007,06,16,08,38,13.40
2007,06,16,08,39,13.40
2007,06,16,08,40,13.50
2007,06,16,08,41,13.50
2007,06,16,08,42,13.50
2007,06,16,08,43,13.50
2007,06,16,08,44,13.60
2007,06,16,08,45,13.60
2007,06,16,08,46,13.60
2007,06,16,08,47,13.60
2007,06,16,08,48,13.60
2007,06,16,08,49,13.60
2007,06,16,08,50,13.60
2007,06,16,08,51,13.60
2007,06,16,08,52,13.70
2007,06,16,08,53,13.70
2007,06,16,08,54,13.70
2007,06,16,08,55,13.80
2007,06,16,08,56,13.80
2007,06,16,08,57,13.80
2007,06,16,08,58,13.80
2007,06,16,08,59,13.80
2007,06,16,09,00,13.80
2007,06,16,09,01,13.90
2007,06,16,09,02,14.00
2007,06,16,09,03,14.00
2007,06,16,09,04,14.10
2007,06,16,09,05,14.10
2007,06,16,09,06,14.20
2007,06,16,09,07,14.20
2007,06,16,09,08,14.20
2007,06,16,09,09,14.30
2007,06,16,09,10,14.40
2007,06,16,09,11,14.50
2007,06,16,09,12,14.50
2007,06,16,09,13,14.60
2007,06,16,09,14,14.60
2007,06,16,09,15,14.70
2007,06,16,09,16,14.70
2007,06,16,09,17,14.80
2007,06,16,09,18,14.90
2007,06,16,09,19,15.00
2007,06,16,09,20,15.00
2007,06,16,09,21,15.00
2007,06,16,09,22,15.00
2007,06,16,09,23,15.00
2007,06,16,09,24,15.10
2007,06,16,09,25,15.00
2007,06,16,09,26,15.00
2007,06,16,09,27,15.00
2007,06,16,09,28,15.00
2007,06,16,09,29,15.00
2007,06,16,09,30,15.00
2007,06,16,09,31,15.00
2007,06,16,09,32,15.00
2007,06,16,09,33,15.00
2007,06,16,09,34,15.00
2007,06,16,09,35,15.00
2007,06,16,09,36,15.00
2007,06,16,09,37,15.00
2007,06,16,09,38,15.00
2007,06,16,09,39,15.10
2007,06,16,09,40,15.20
2007,06,16,09,41,15.30
2007,06,16,09,42,15.40
2007,06,16,09,43,15.50
2007,06,16,09,44,15.70
2007,06,16,09,45,15.80
2007,06,16,09,46,15.90
2007,06,16,09,47,16.00
2007,06,16,09,48,16.00
2007,06,16,09,49,16.10
2007,06,16,09,50,16.00
2007,06,16,09,51,16.00
2007,06,16,09,52,15.90
2007,06,16,09,53,15.90
2007,06,16,09,54,15.90
2007,06,16,09,55,15.90
2007,06,16,09,56,15.90
2007,06,16,09,57,15.80
2007,06,16,09,58,15.90
2007,06,16,09,59,16.00
2007,06,16,10,00,16.00
2007,06,16,10,01,16.00
2007,06,16,10,02,16.10
2007,06,16,10,03,16.10
2007,06,16,10,04,16.20
2007,06,16,10,05,16.20
2007,06,16,10,06,16.20
2007,06,16,10,07,16.10
2007,06,16,10,08,16.10
2007,06,16,10,09,16.10
2007,06,16,10,10,16.10
2007,06,16,10,11,16.10
2007,06,16,10,12,16.10
2007,06,16,10,13,16.00
2007,06,16,10,14,16.00
2007,06,16,10,15,15.90
2007,06,16,10,16,15.90
2007,06,16,10,17,16.00
2007,06,16,10,18,16.00
2007,06,16,10,19,16.20
2007,06,16,10,20,16.20
2007,06,16,10,21,16.40
2007,06,16,10,22,16.50
2007,06,16,10,23,16.60
2007,06,16,10,24,16.70
2007,06,16,10,25,16.90
2007,06,16,10,26,16.90
2007,06,16,10,27,16.90
2007,06,16,10,28,16.90
2007,06,16,10,29,16.90
2007,06,16,10,30,16.80
2007,06,16,10,31,16.80
2007,06,16,10,32,16.80
2007,06,16,10,33,16.90
2007,06,16,10,34,17.00
2007,06,16,10,35,17.10
2007,06,16,10,36,17.20
2007,06,16,10,37,17.20
2007,06,16,10,38,17.20
2007,06,16,10,39,17.20
2007,06,16,10,40,17.10
2007,06,16,10,41,17.00
2007,06,16,10,42,16.90
2007,06,16,10,43,16.80
2007,06,16,10,44,16.70
2007,06,16,10,45,16.70
2007,06,16,10,46,16.70
2007,06,16,10,47,16.60
2007,06,16,10,48,16.50
2007,06,16,10,49,16.50
2007,06,16,10,50,16.40
2007,06,16,10,51,16.30
2007,06,16,10,52,16.30
2007,06,16,10,53,16.20
2007,06,16,10,54,16.30
2007,06,16,10,55,16.30
2007,06,16,10,56,16.30
2007,06,16,10,57,16.40
2007,06,16,10,58,16.40
2007,06,16,10,59,16.40
2007,06,16,11,00,16.40
2007,06,16,11,01,16.40
2007,06,16,11,02,16.50
2007,06,16,11,03,16.50
2007,06,16,11,04,16.50
2007,06,16,11,05,16.50
2007,06,16,11,06,16.50
2007,06,16,11,07,16.40
2007,06,16,11,08,16.40
2007,06,16,11,09,16.40
2007,06,16,11,10,16.40
2007,06,16,11,11,16.30
2007,06,16,11,12,16.20
2007,06,16,11,13,16.20
2007,06,16,11,14,16.20
2007,06,16,11,15,16.30
2007,06,16,11,16,16.40
2007,06,16,11,17,16.40
2007,06,16,11,18,16.40
2007,06,16,11,19,16.40
2007,06,16,11,20,16.40
2007,06,16,11,21,16.30
2007,06,16,11,22,16.30
2007,06,16,11,23,16.40
2007,06,16,11,24,16.50
2007,06,16,11,25,16.60
2007,06,16,11,26,16.60
2007,06,16,11,27,16.70
2007,06,16,11,28,16.80
2007,06,16,11,29,16.90
2007,06,16,11,30,16.90
2007,06,16,11,31,17.00
2007,06,16,11,32,17.10
2007,06,16,11,33,17.10
2007,06,16,11,34,17.10
2007,06,16,11,35,17.10
2007,06,16,11,36,17.10
2007,06,16,11,37,17.10
2007,06,16,11,38,17.10
2007,06,16,11,39,17.10
2007,06,16,11,40,17.20
2007,06,16,11,41,17.20
2007,06,16,11,42,17.20
2007,06,16,11,43,17.20
2007,06,16,11,44,17.20
2007,06,16,11,45,17.30
2007,06,16,11,46,17.30
2007,06,16,11,47,17.30
2007,06,16,11,48,17.30
2007,06,16,11,49,17.30
2007,06,16,11,50,17.10
2007,06,16,11,51,17.00
2007,06,16,11,52,17.00
2007,06,16,11,53,17.00
2007,06,16,11,54,17.00
2007,06,16,11,55,17.10
2007,06,16,11,56,17.10
2007,06,16,11,57,17.20
2007,06,16,11,58,17.20
2007,06,16,11,59,17.10
2007,06,16,12,00,16.90
2007,06,16,12,01,16.80
2007,06,16,12,02,16.80
2007,06,16,12,03,16.70
2007,06,16,12,04,16.80
2007,06,16,12,05,16.80
2007,06,16,12,06,16.90
2007,06,16,12,07,17.00
2007,06,16,12,08,17.20
2007,06,16,12,09,17.40
2007,06,16,12,10,17.40
2007,06,16,12,11,17.40
2007,06,16,12,12,17.40
2007,06,16,12,13,17.40
2007,06,16,12,14,17.50
2007,06,16,12,15,17.40
2007,06,16,12,16,17.30
2007,06,16,12,17,17.10
2007,06,16,12,18,17.00
2007,06,16,12,19,16.90
2007,06,16,12,20,16.80
2007,06,16,12,21,16.70
2007,06,16,12,22,16.70
2007,06,16,12,23,16.70
2007,06,16,12,24,16.90
2007,06,16,12,25,17.00
2007,06,16,12,26,17.10
2007,06,16,12,27,17.20
2007,06,16,12,28,17.30
2007,06,16,12,29,17.30
2007,06,16,12,30,17.40
2007,06,16,12,31,17.50
2007,06,16,12,32,17.60
2007,06,16,12,33,17.70
2007,06,16,12,34,17.70
2007,06,16,12,35,17.70
2007,06,16,12,36,17.70
2007,06,16,12,37,17.70
2007,06,16,12,38,17.60
2007,06,16,12,39,17.50
2007,06,16,12,40,17.40
2007,06,16,12,41,17.30
2007,06,16,12,42,17.30
2007,06,16,12,43,17.30
2007,06,16,12,44,17.20
2007,06,16,12,45,17.20
2007,06,16,12,46,17.20
2007,06,16,12,47,17.30
2007,06,16,12,48,17.30
2007,06,16,12,49,17.30
2007,06,16,12,50,17.40
2007,06,16,12,51,17.30
2007,06,16,12,52,17.40
2007,06,16,12,53,17.40
2007,06,16,12,54,17.50
2007,06,16,12,55,17.50
2007,06,16,12,56,17.40
2007,06,16,12,57,17.30
2007,06,16,12,58,17.30
2007,06,16,12,59,17.30
2007,06,16,13,00,17.30
2007,06,16,13,01,17.50
2007,06,16,13,02,17.60
2007,06,16,13,03,17.80
2007,06,16,13,04,17.90
2007,06,16,13,05,18.00
2007,06,16,13,06,17.90
2007,06,16,13,07,17.90
2007,06,16,13,08,17.80
2007,06,16,13,09,17.80
2007,06,16,13,10,17.70
2007,06,16,13,11,17.60
2007,06,16,13,12,17.60
2007,06,16,13,13,17.60
2007,06,16,13,14,17.50
2007,06,16,13,15,17.40
2007,06,16,13,16,17.40
2007,06,16,13,17,17.40
2007,06,16,13,18,17.40
2007,06,16,13,19,17.30
2007,06,16,13,20,17.30
2007,06,16,13,21,17.30
2007,06,16,13,22,17.30
2007,06,16,13,23,17.30
2007,06,16,13,24,17.30
2007,06,16,13,25,17.20
2007,06,16,13,26,17.10
2007,06,16,13,27,17.10
2007,06,16,13,28,17.00
2007,06,16,13,29,16.90
2007,06,16,13,30,16.90
2007,06,16,13,31,16.70
2007,06,16,13,32,16.40
2007,06,16,13,33,16.30
2007,06,16,13,34,16.10
2007,06,16,13,35,15.90
2007,06,16,13,36,15.80
2007,06,16,13,37,15.70
2007,06,16,13,38,15.50
2007,06,16,13,39,15.40
2007,06,16,13,40,15.20
2007,06,16,13,41,15.00
2007,06,16,13,42,15.00
2007,06,16,13,43,15.00
2007,06,16,13,44,15.00
2007,06,16,13,45,15.10
2007,06,16,13,46,15.20
2007,06,16,13,47,15.20
2007,06,16,13,48,15.20
2007,06,16,13,49,15.20
2007,06,16,13,50,15.20
2007,06,16,13,51,15.20
2007,06,16,13,52,15.20
2007,06,16,13,53,15.20
2007,06,16,13,54,15.20
2007,06,16,13,55,15.20
2007,06,16,13,56,15.20
2007,06,16,13,57,15.20
2007,06,16,13,58,15.20
2007,06,16,13,59,15.20
2007,06,16,14,00,15.20
2007,06,16,14,01,15.20
2007,06,16,14,02,15.10
2007,06,16,14,03,15.10
2007,06,16,14,04,15.00
2007,06,16,14,05,15.00
2007,06,16,14,06,15.00
2007,06,16,14,07,15.00
2007,06,16,14,08,15.10
2007,06,16,14,09,15.10
2007,06,16,14,10,15.10
2007,06,16,14,11,15.20
2007,06,16,14,12,15.20
2007,06,16,14,13,15.20
2007,06,16,14,14,15.20
2007,06,16,14,15,15.20
2007,06,16,14,16,15.10
2007,06,16,14,17,15.10
2007,06,16,14,18,15.10
2007,06,16,14,19,15.10
2007,06,16,14,20,15.10
2007,06,16,14,21,15.10
2007,06,16,14,22,15.20
2007,06,16,14,23,15.10
2007,06,16,14,24,15.10
2007,06,16,14,25,15.00
2007,06,16,14,26,15.00
2007,06,16,14,27,15.00
2007,06,16,14,28,15.00
2007,06,16,14,29,15.00
2007,06,16,14,30,15.10
2007,06,16,14,31,15.10
2007,06,16,14,32,15.10
2007,06,16,14,33,15.20
2007,06,16,14,34,15.20
2007,06,16,14,35,15.30
2007,06,16,14,36,15.30
2007,06,16,14,37,15.30
2007,06,16,14,38,15.30
2007,06,16,14,39,15.30
2007,06,16,14,40,15.30
2007,06,16,14,41,15.30
2007,06,16,14,42,15.30
2007,06,16,14,43,15.30
2007,06,16,14,44,15.40
2007,06,16,14,45,15.40
2007,06,16,14,46,15.40
2007,06,16,14,47,15.40
2007,06,16,14,48,15.40
2007,06,16,14,49,15.40
2007,06,16,14,50,15.40
2007,06,16,14,51,15.40
2007,06,16,14,52,15.50
2007,06,16,14,53,15.50
2007,06,16,14,54,15.60
2007,06,16,14,55,15.70
2007,06,16,14,56,15.70
2007,06,16,14,57,15.80
2007,06,16,14,58,15.80
2007,06,16,14,59,15.80
2007,06,16,15,00,15.80
2007,06,16,15,01,15.90
2007,06,16,15,02,15.90
2007,06,16,15,03,16.00
2007,06,16,15,04,16.10
2007,06,16,15,05,16.20
2007,06,16,15,06,16.30
2007,06,16,15,07,16.30
2007,06,16,15,08,16.40
2007,06,16,15,09,16.60
2007,06,16,15,10,16.60
2007,06,16,15,11,16.60
2007,06,16,15,12,16.70
2007,06,16,15,13,16.60
2007,06,16,15,14,16.60
2007,06,16,15,15,16.50
2007,06,16,15,16,16.60
2007,06,16,15,17,16.60
2007,06,16,15,18,16.70
2007,06,16,15,19,16.80
2007,06,16,15,20,16.80
2007,06,16,15,21,16.90
2007,06,16,15,22,17.00
2007,06,16,15,23,17.10
2007,06,16,15,24,17.10
2007,06,16,15,25,17.30
2007,06,16,15,26,17.40
2007,06,16,15,27,17.50
2007,06,16,15,28,17.60
2007,06,16,15,29,17.70
2007,06,16,15,30,17.80
2007,06,16,15,31,17.70
2007,06,16,15,32,17.70
2007,06,16,15,33,17.70
2007,06,16,15,34,17.80
2007,06,16,15,35,17.80
2007,06,16,15,36,17.90
2007,06,16,15,37,18.10
2007,06,16,15,38,18.10
2007,06,16,15,39,18.00
2007,06,16,15,40,18.00
2007,06,16,15,41,17.90
2007,06,16,15,42,17.90
2007,06,16,15,43,17.90
2007,06,16,15,44,17.90
2007,06,16,15,45,17.90
2007,06,16,15,46,17.90
2007,06,16,15,47,17.90
2007,06,16,15,48,17.90
2007,06,16,15,49,18.00
2007,06,16,15,50,18.00
2007,06,16,15,51,18.10
2007,06,16,15,52,18.20
2007,06,16,15,53,18.30
2007,06,16,15,54,18.30
2007,06,16,15,55,18.30
2007,06,16,15,56,18.30
2007,06,16,15,57,18.20
2007,06,16,15,58,18.20
2007,06,16,15,59,18.10
2007,06,16,16,00,18.10
2007,06,16,16,01,18.00
2007,06,16,16,02,17.80
2007,06,16,16,03,17.70
2007,06,16,16,04,17.70
2007,06,16,16,05,17.60
2007,06,16,16,06,17.60
2007,06,16,16,07,17.60
2007,06,16,16,08,17.60
2007,06,16,16,09,17.50
2007,06,16,16,10,17.60
2007,06,16,16,11,17.70
2007,06,16,16,12,17.80
2007,06,16,16,13,17.80
2007,06,16,16,14,17.90
2007,06,16,16,15,17.90
2007,06,16,16,16,17.90
2007,06,16,16,17,17.90
2007,06,16,16,18,17.90
2007,06,16,16,19,17.80
2007,06,16,16,20,17.80
2007,06,16,16,21,17.80
2007,06,16,16,22,17.70
2007,06,16,16,23,17.70
2007,06,16,16,24,17.70
2007,06,16,16,25,17.70
2007,06,16,16,26,17.60
2007,06,16,16,27,17.60
2007,06,16,16,28,17.50
2007,06,16,16,29,17.50
2007,06,16,16,30,17.50
2007,06,16,16,31,17.50
2007,06,16,16,32,17.40
2007,06,16,16,33,17.40
2007,06,16,16,34,17.40
2007,06,16,16,35,17.30
2007,06,16,16,36,17.30
2007,06,16,16,37,17.20
2007,06,16,16,38,17.10
2007,06,16,16,39,17.10
2007,06,16,16,40,17.10
2007,06,16,16,41,17.00
2007,06,16,16,42,17.00
2007,06,16,16,43,16.90
2007,06,16,16,44,16.90
2007,06,16,16,45,16.90
2007,06,16,16,46,16.90
2007,06,16,16,47,16.80
2007,06,16,16,48,16.80
2007,06,16,16,49,16.70
2007,06,16,16,50,16.70
2007,06,16,16,51,16.60
2007,06,16,16,52,16.50
2007,06,16,16,53,16.40
2007,06,16,16,54,16.40
2007,06,16,16,55,16.40
2007,06,16,16,56,16.40
2007,06,16,16,57,16.40
2007,06,16,16,58,16.40
2007,06,16,16,59,16.40
2007,06,16,17,00,16.30
2007,06,16,17,01,16.20
2007,06,16,17,02,16.10
2007,06,16,17,03,16.00
2007,06,16,17,04,15.90
2007,06,16,17,05,15.90
2007,06,16,17,06,15.80
2007,06,16,17,07,15.80
2007,06,16,17,08,15.80
2007,06,16,17,09,15.70
2007,06,16,17,10,15.70
2007,06,16,17,11,15.60
2007,06,16,17,12,15.60
2007,06,16,17,13,15.50
2007,06,16,17,14,15.50
2007,06,16,17,15,15.50
2007,06,16,17,16,15.40
2007,06,16,17,17,15.40
2007,06,16,17,18,15.40
2007,06,16,17,19,15.50
2007,06,16,17,20,15.50
2007,06,16,17,21,15.50
2007,06,16,17,22,15.50
2007,06,16,17,23,15.50
2007,06,16,17,24,15.50